Torna al catalogo

THOR ABLESTAR DEB

AttivoLEO
NORAD 549·DEBRIS·🇺🇸 United States

Lanciato Jun 29, 1961 da Cape Canaveral Space Force Station

Loading…

Prossimi Passaggi (prossime 24 ore)

TLE

AggiornatoSource: Space-Track

Epoca: Sep 14, 2026, 10:08 UTC

1 00549U 61015GJ  26257.42256920  .00000039  00000-0  18037-3 0  9997
2 00549  66.6941  56.1741 0219936 273.3512 101.8911 13.36476624174846

Traccia THOR ABLESTAR DEB in tempo reale con AllMySat

Download on the App Store